This is the latest recevied weather packets stored in our database for station/object WV6L-13. If no packets are shown the sender has not sent any weather packets the latest 1 day(s).
| Time | Temp. | Humidity | Pressure | Rain* | Wind** | Luminosity | Snow |
|---|---|---|---|---|---|---|---|
| 1778023493 | 22.22° C | 30% | 921.3 hPa | - | 4.47 m/s, 217° | - | - |
| 1778023193 | 21.11° C | 31% | 921.2 hPa | - | 2.68 m/s, 259° | - | - |
| 1778022893 | 20.56° C | 31% | 921.3 hPa | - | 1.34 m/s, 222° | - | - |
| 1778022592 | 22.22° C | 30% | 921.4 hPa | - | 2.24 m/s, 263° | - | - |
| 1778022292 | 21.11° C | 31% | 921.3 hPa | - | 1.79 m/s, 247° | - | - |
| 1778021993 | 20.56° C | 32% | 921.5 hPa | - | 2.24 m/s, 255° | - | - |
| 1778021692 | 22.22° C | 30% | 921.5 hPa | - | 1.79 m/s, 205° | - | - |
| 1778021393 | 21.67° C | 30% | 921.7 hPa | - | 0.89 m/s, 166° | - | - |
| 1778021093 | 21.67° C | 30% | 921.9 hPa | - | 1.79 m/s, 229° | - | - |
| 1778020492 | 20.56° C | 32% | 921.7 hPa | - | 0.89 m/s, 114° | - | - |
| 1778020193 | 21.11° C | 32% | 921.7 hPa | - | 2.68 m/s, 187° | - | - |
| 1778019892 | 20.56° C | 33% | 921.8 hPa | - | 1.34 m/s, 105° | - | - |
| 1778019593 | 21.11° C | 32% | 922 hPa | - | 1.34 m/s, 201° | - | - |
| 1778019293 | 21.11° C | 31% | 921.8 hPa | - | 1.79 m/s, 182° | - | - |
| 1778018993 | 21.11° C | 31% | 921.8 hPa | - | 0.89 m/s, 243° | - | - |
| 1778018692 | 21.11° C | 32% | 921.9 hPa | - | 4.47 m/s, 138° | - | - |
| 1778018393 | 22.22° C | 30% | 921.9 hPa | - | 4.47 m/s, 120° | - | - |
| 1778018093 | 21.67° C | 31% | 922.1 hPa | - | 3.13 m/s, 121° | - | - |
| 1778017793 | 21.11° C | 33% | 922.3 hPa | - | 1.79 m/s, 125° | - | - |
| 1778017493 | 20.56° C | 32% | 922.2 hPa | - | 2.68 m/s, 156° | - | - |
| 1778016892 | 20° C | 33% | 922.4 hPa | - | 3.58 m/s, 336° | - | - |
| 1778016593 | 20° C | 32% | 922.3 hPa | - | 3.58 m/s, 328° | - | - |
| 1778016293 | 19.44° C | 33% | 922.4 hPa | - | 0.89 m/s, 241° | - | - |
| 1778015993 | 20° C | 32% | 922.4 hPa | - | 1.79 m/s, 128° | - | - |
| 1778015693 | 20.56° C | 33% | 922.5 hPa | - | 4.47 m/s, 132° | - | - |
* Rain since midnight (hover to see other rain measurements)
** Current wind speed in m/s (hover to see current wind gust speed)